Yakima, WA

7:28 PM PST on December 10, 2016 (GMT -0800)
Yakima Air Term-McAllister

Weather History for KYKM - March, 2014

Change the Weather History Date:

Wednesday, March 19, 2014

  Actual Average Record
Temperature  
Mean Temperature 46 °F 44 °F  
Max Temperature 61 °F 57 °F 78 °F (1947)
Min Temperature 30 °F 31 °F 14 °F (1965)
Degree Days  
Heating Degree Days 19 21  
Month to date heating degree days 382 441  
Since 1 July heating degree days 4784 4968  
Cooling Degree Days 0 0  
Month to date cooling degree days 0 0  
Year to date cooling degree days 0 0  
Moisture  
Dew Point 28 °F    
Average Humidity 57    
Maximum Humidity 82    
Minimum Humidity 31    
Precipitation  
Precipitation T in 0.02 in 0.32 in (1961)
Month to date precipitation 0.57 0.43  
Year to date precipitation 2.30 2.35  
Snow  
Snow 0.00 in 0.00 in 0.00 in (2002)
Month to date snowfall 1.7 0.6  
Year to date snowfall 19.9 8.5  
Since 1 July snowfall 19.9 21.5  
Snow Depth 0.00 in    
Sea Level Pressure  
Sea Level Pressure 30.03 in    
Wind  
Wind Speed 10 mph (West)    
Max Wind Speed 32 mph    
Max Gust Speed 38 mph    
Visibility 10 miles    
Events Rain    
T = Trace of Precipitation, MM = Missing Value Source: NWS Daily Summary

Daily Weather History Graph

Daily Weather History Graph

Search for Another Location

Airport or City:

Trip Planner

Search our weather history database for the weather conditions in past years. The results will help you decide how hot, cold, wet, or windy it might be!

Date:

Astronomy

Mar. 19, 2014 Rise Set
Actual Time 7:06 AM PDT 7:13 PM PDT
Civil Twilight 6:36 AM PDT 7:43 PM PDT
Nautical Twilight 6:01 AM PDT 8:19 PM PDT
Astronomical Twilight 5:25 AM PDT 8:55 PM PDT
Moon 10:50 PM PDT (3/19) 8:24 AM PDT (3/19)
Length of Visible Light 13h 06m
Length of Day
12h 06m
Waning Gibbous, 90% of the Moon is Illuminated
Mar 19
Waning Gibbous
Mar 23
Last Quarter
Mar 30
New
Apr 7
First Quarter
Apr 15
Full

Hourly Weather History & Observations

Time (PDT) Temp. Windchill Dew Point Humidity Pressure Visibility Wind Dir Wind Speed Gust Speed Precip Events Conditions
12:53 AM 37.0 °F 31.6 °F 28.0 °F 70% 30.14 in 10.0 mi WNW 6.9 mph - N/A   Clear
1:53 AM 35.1 °F 30.1 °F 28.0 °F 76% 30.14 in 10.0 mi West 5.8 mph - N/A   Partly Cloudy
2:53 AM 36.0 °F 33.3 °F 28.0 °F 73% 30.12 in 10.0 mi West 3.5 mph - N/A   Clear
3:53 AM 32.0 °F 26.4 °F 26.1 °F 79% 30.11 in 10.0 mi West 5.8 mph - N/A   Clear
4:53 AM 32.0 °F 27.5 °F 27.0 °F 82% 30.10 in 10.0 mi WNW 4.6 mph - N/A   Clear
5:53 AM 32.0 °F 26.4 °F 27.0 °F 82% 30.10 in 10.0 mi WNW 5.8 mph - N/A   Mostly Cloudy
6:53 AM 34.0 °F 28.8 °F 28.0 °F 79% 30.09 in 10.0 mi West 5.8 mph - N/A   Mostly Cloudy
7:53 AM 35.1 °F - 30.0 °F 82% 30.06 in 10.0 mi Calm Calm - N/A   Mostly Cloudy
8:53 AM 39.9 °F - 30.0 °F 68% 30.05 in 10.0 mi Calm Calm - N/A   Partly Cloudy
9:53 AM 46.0 °F - 32.0 °F 58% 30.04 in 10.0 mi Calm Calm - N/A   Partly Cloudy
10:53 AM 50.0 °F - 30.9 °F 48% 30.02 in 10.0 mi East 4.6 mph - N/A   Clear
11:53 AM 53.1 °F - 32.0 °F 45% 29.99 in 10.0 mi Calm Calm - N/A   Partly Cloudy
12:53 PM 59.0 °F - 35.1 °F 41% 29.96 in 10.0 mi South 9.2 mph - N/A   Partly Cloudy
1:53 PM 59.0 °F - 32.0 °F 36% 29.94 in 10.0 mi SW 18.4 mph 26.5 mph 0.00 in Rain Light Rain
2:53 PM 59.0 °F - 28.9 °F 32% 29.93 in 10.0 mi WSW 8.1 mph - 0.00 in   Mostly Cloudy
3:53 PM 57.9 °F - 28.9 °F 33% 29.93 in 10.0 mi WNW 6.9 mph - 0.00 in Rain Light Rain
4:16 PM 59.0 °F - 27.0 °F 29% 29.92 in 10.0 mi WSW 16.1 mph 29.9 mph 0.00 in   Mostly Cloudy
4:53 PM 57.0 °F - 34.0 °F 42% 29.95 in 10.0 mi West 16.1 mph - 0.00 in   Mostly Cloudy
5:53 PM 53.1 °F - 28.9 °F 40% 29.96 in 10.0 mi WNW 15.0 mph - N/A   Mostly Cloudy
6:53 PM 51.1 °F - 27.0 °F 39% 29.96 in 10.0 mi WNW 25.3 mph 33.4 mph N/A   Partly Cloudy
7:53 PM 48.0 °F - 26.1 °F 42% 30.01 in 10.0 mi WNW 15.0 mph 26.5 mph N/A   Clear
8:53 PM 46.0 °F 37.6 °F 18.0 °F 33% 30.04 in 10.0 mi West 24.2 mph 31.1 mph N/A   Clear
9:53 PM 44.1 °F 36.2 °F 21.0 °F 40% 30.06 in 10.0 mi West 18.4 mph - N/A   Clear
10:53 PM 44.1 °F 37.1 °F 21.9 °F 42% 30.08 in 10.0 mi WSW 15.0 mph 24.2 mph N/A   Clear
11:53 PM 42.1 °F 34.9 °F 19.9 °F 41% 30.11 in 10.0 mi WSW 13.8 mph - N/A   Clear